Temp_Advection
nan nan nan nan nan nan nan nan nan nan nan nan nan nan nan nan nan nan nan nan nan nan nan nan nan nan nan nan nan nan nan nan nan nan nan nan nan nan nan nan nan nan nan nan nan
nan -0 -0 -0 -0 -0 -0 -0 -0 -0 -0 -0 -0 -0 -1 -1 -0 -0 -0 -0 -0 -0 -0 -0 -0 -0 0 0 0 0 -0 -0 0 -0 0 0 -0 -0 0 0 -0 -0 -0 0 nan
nan -0 -0 -0 -0 -0 -0 -0 -0 -0 -0 -0 -0 -1 -0 -1 -0 0 0 -0 -0 -0 -0 -0 -0 -0 0 -0 0 0 -0 0 0 0 0 -0 -0 -0 -0 -0 -0 -0 0 1 nan
nan -0 -0 -0 0 -0 -0 -0 -0 -0 -0 -0 -0 -0 -1 -1 -0 -0 0 0 -0 -0 -0 -0 -0 -0 -0 -0 -0 -0 0 -0 -0 0 -0 -0 -0 -0 0 -1 -0 0 0 0 nan
nan -0 -0 0 -0 -0 -0 -0 -0 -0 -0 -0 -0 -0 -0 -1 -0 -0 0 -0 -0 -0 -0 -0 -0 -0 -0 -0 -0 0 -0 -0 -0 0 0 -0 -1 -0 -0 -1 0 -0 0 1 nan
nan -0 -0 0 0 -0 -0 -0 0 -0 -0 -0 -0 -0 1 -0 -1 0 -0 -0 -0 -0 -0 -0 -0 0 -0 0 -0 -0 -0 -0 -0 0 -0 -0 0 -0 -0 -0 0 0 0 0 nan
nan 0 -0 -0 -0 -0 -0 -0 -0 0 -0 -0 -0 -0 -1 -0 0 0 -0 0 0 -0 0 -0 0 0 0 0 0 -0 -0 -0 -0 -0 -0 -0 0 -0 -0 -0 0 0 0 0 nan
nan -0 -0 -0 -0 -0 -0 -0 -0 0 -0 -0 0 -0 -0 -0 -0 -0 -0 0 0 0 -0 -0 -0 0 0 0 -0 -0 0 -0 -0 -0 0 0 -0 0 -0 -0 0 0 0 0 nan
nan 0 -0 -0 -0 -0 -1 -0 -0 -0 -0 -0 0 0 -0 -0 0 0 -0 -0 -0 -0 -0 0 0 0 0 0 0 0 -0 0 -0 -0 -0 -0 -1 -0 0 -0 -0 -0 -0 0 nan
nan 0 -0 -0 -0 -0 -0 -1 -1 -0 -0 -0 0 -0 -0 0 -0 -0 0 -0 -0 -0 -0 0 -0 -0 0 0 -0 0 0 0 -0 -0 -0 -0 -0 -0 0 -0 -0 0 -0 -0 nan
nan 0 -0 -0 -0 -0 -1 -1 -1 -0 -1 -0 0 1 -1 -1 -1 -0 0 0 -0 -0 0 -0 0 0 0 0 -0 0 0 -0 -0 0 -0 -1 -0 -0 1 0 -1 0 -0 -1 nan
nan 0 0 -0 -0 -0 -0 -0 -0 -0 -1 -2 1 -0 -0 -0 -0 0 -0 -0 0 0 0 0 -0 0 0 0 0 -0 -0 -0 -0 0 -0 -0 -0 -0 -0 0 0 -0 -0 -1 nan
nan 0 0 -0 -0 -0 0 0 0 0 -0 -1 0 -0 -0 -0 -0 0 -0 -0 -0 -0 -0 0 -0 -0 -0 0 0 0 -0 -0 -0 -0 -0 -0 -0 0 0 0 -0 -1 -1 -1 nan
nan 0 0 0 -0 -0 -0 -0 0 1 0 -0 -0 -0 -0 0 -0 -0 -0 -0 -0 -0 -0 -0 -0 -0 -0 0 -0 -0 -0 0 0 -0 -0 -0 -1 -0 0 0 0 -1 -1 -1 nan
nan 0 0 0 0 -0 -0 -0 -0 -0 -0 -0 -0 0 0 -0 -0 0 -0 -0 -0 0 0 -0 0 -0 -0 -0 -0 -0 -0 0 -0 0 -0 -0 -0 -0 -0 -0 0 -0 -1 0 nan
nan 1 1 0 -0 0 -0 0 0 -0 -1 -0 0 0 0 -0 -0 0 0 0 -0 -0 -0 -0 -0 -0 0 0 -0 0 0 -0 -0 0 -1 -0 0 -0 -0 -0 -0 -0 0 1 nan
nan 1 0 -0 -0 1 1 1 -0 -0 0 -0 0 0 0 -0 0 0 0 0 0 0 0 -0 -0 -0 0 -0 -0 0 0 -0 0 -0 0 -0 -0 0 0 0 0 -0 -0 -0 nan
nan 0 -0 0 0 1 1 0 -1 -0 -0 0 0 0 0 0 0 0 0 0 -0 0 -0 -0 -0 0 0 0 0 0 0 0 -0 -0 0 -0 -0 0 -0 0 0 -0 0 0 nan
nan 0 -0 -0 1 2 0 -1 -1 -0 0 0 0 -0 0 0 0 0 0 0 0 0 0 0 0 -0 0 0 -0 -0 0 -0 0 0 -1 -0 0 0 0 -0 -0 -0 0 0 nan
nan 1 0 1 2 2 -0 -2 -0 0 0 0 -0 -0 0 0 0 0 -0 0 0 0 0 0 -0 0 -0 0 0 -0 -0 0 0 -0 -1 -1 -0 0 0 0 -0 -0 0 -0 nan
nan 1 0 1 2 1 -0 -0 0 0 0 0 0 0 0 0 0 -0 0 -0 -0 0 0 0 0 0 0 0 0 -0 0 0 0 0 -0 -1 0 -0 -0 -0 -0 -0 0 -0 nan
nan 0 1 1 0 0 -0 0 0 0 0 -0 -0 -0 1 0 0 0 0 0 0 0 0 0 0 0 -0 0 0 0 -0 0 0 0 0 -0 -1 0 -0 0 0 -0 0 0 nan
nan 0 1 2 0 -0 -0 0 0 0 0 0 0 0 -0 0 0 0 0 0 0 0 0 -0 0 -0 0 0 0 0 0 0 -0 0 0 -0 -1 0 -0 -0 -0 0 0 0 nan
nan -0 0 0 -0 0 -0 0 0 0 -0 0 0 0 0 0 0 0 0 0 0 0 0 0 0 0 -0 -0 0 -0 -0 0 1 0 -1 -0 -1 -1 -0 -0 -0 0 0 -0 nan
nan -0 0 0 -0 0 0 0 -0 -0 0 1 0 0 1 0 0 0 0 0 -0 0 0 -0 0 -0 -0 -0 0 0 0 0 0 -0 -0 -1 -1 -0 -0 -0 0 1 0 0 nan
nan -1 -1 0 -0 0 0 -0 -0 0 0 0 0 1 1 0 0 0 0 0 0 0 0 0 0 -0 -0 -0 0 0 -0 0 -0 -0 -0 -0 -1 -1 0 1 0 0 0 1 nan
nan nan nan nan nan nan nan nan nan nan nan nan nan nan nan nan nan nan nan nan nan nan nan nan nan nan nan nan nan nan nan nan nan nan nan nan nan nan nan nan nan nan nan nan nan
Wind_Speed
11 13 15 16 18 18 19 21 21 22 22 24 26 27 29 30 24 4 4 7 10 11 12 7 3 4 1 4 5 5 2 3 3 4 3 4 7 5 3 2 5 6 6 6 5
12 14 15 17 17 18 19 20 20 20 23 25 26 29 30 30 18 4 2 6 9 12 12 8 5 3 4 5 5 3 3 5 3 3 4 5 3 9 3 3 5 9 12 13 12
13 14 16 17 18 18 18 19 19 20 23 26 29 30 30 29 10 1 5 8 9 11 10 10 6 4 1 1 2 3 4 4 3 5 4 8 16 3 4 5 10 8 13 13 14
13 14 17 17 18 18 18 18 20 21 23 27 30 30 29 26 4 8 9 6 9 10 7 7 8 4 1 1 2 3 4 3 3 4 6 8 8 7 10 15 19 15 13 14 16
14 14 16 17 18 18 18 19 21 23 24 27 29 31 30 20 10 8 5 7 9 5 6 6 10 6 4 3 4 2 2 5 12 20 14 10 13 12 12 18 19 17 17 17 17
15 15 16 17 18 19 19 20 24 25 25 28 30 30 25 8 11 5 5 4 1 2 5 7 5 4 1 3 3 4 9 14 10 11 5 4 3 2 2 17 12 14 14 16 17
14 15 16 17 19 18 20 23 25 26 28 29 29 26 22 24 10 7 2 4 4 4 3 3 3 2 3 5 4 6 9 8 1 3 1 3 3 3 9 12 8 8 11 14 17
15 14 16 16 19 19 22 26 25 28 27 28 26 22 11 12 6 7 9 6 4 3 3 4 4 4 3 2 4 4 1 4 1 7 2 1 5 6 5 11 10 9 9 13 17
15 14 15 16 18 22 24 27 27 26 25 19 22 12 8 2 3 8 7 4 6 3 8 7 4 2 1 1 2 2 4 3 6 2 4 7 10 8 12 10 12 14 14 13 15
16 15 15 15 18 22 25 26 21 22 9 22 9 8 2 1 3 5 10 11 10 12 8 2 2 1 1 3 4 4 4 4 9 3 12 16 15 13 15 10 14 20 15 11 9
17 16 15 15 17 21 25 27 17 6 22 12 24 23 28 26 24 19 13 9 14 6 3 1 2 8 7 8 2 2 4 11 11 12 6 14 12 13 19 8 17 12 8 9 9
19 17 16 16 17 19 20 15 12 13 17 28 24 24 19 10 5 4 4 7 6 5 2 1 6 4 2 3 6 7 9 14 10 8 6 10 15 15 15 13 11 6 4 7 12
21 19 18 17 17 19 18 13 11 14 9 11 6 8 3 2 2 1 4 6 4 4 4 3 1 4 2 2 4 4 7 6 10 8 5 9 16 8 4 4 0 7 8 12 16
23 21 21 17 17 12 9 7 9 12 4 6 2 1 1 1 3 1 4 3 2 3 5 3 2 1 2 3 6 3 7 9 7 4 6 4 11 6 5 6 2 10 14 14 16
26 24 24 20 14 14 12 8 4 6 5 0 1 2 1 3 4 1 5 2 3 3 3 3 4 3 3 4 6 5 3 3 4 7 4 4 7 2 1 6 8 8 12 9 10
30 28 27 27 24 23 15 7 3 3 7 3 1 1 1 2 2 1 3 2 2 2 2 5 2 3 5 5 6 1 3 1 2 2 9 12 12 2 2 1 4 7 15 19 20
33 32 34 34 34 25 21 14 1 5 1 3 2 1 1 3 2 3 4 4 4 1 1 2 3 3 2 6 1 2 2 4 4 4 7 1 5 13 2 2 1 3 6 11 13
35 34 37 40 38 33 28 3 9 8 7 1 3 2 4 2 3 1 1 4 0 4 3 4 3 2 1 2 1 2 3 3 6 5 9 1 7 3 1 2 2 3 5 12 16
33 37 41 43 40 40 22 7 8 7 7 7 2 2 4 3 2 2 4 3 2 6 8 6 6 2 3 1 1 3 4 1 3 1 7 6 3 4 4 4 5 6 4 8 12
37 41 44 41 37 35 7 26 7 8 7 5 13 11 7 6 6 4 6 3 4 2 2 3 4 1 2 1 2 2 3 3 1 6 13 11 18 11 6 1 3 0 8 10 14
39 18 24 31 31 19 10 7 5 10 10 6 13 9 6 7 7 7 5 2 5 4 4 1 2 1 1 2 1 1 3 3 2 4 11 15 9 4 4 5 4 10 17 23 29
26 4 17 27 8 5 8 5 3 5 8 3 4 8 10 11 8 9 10 3 11 8 5 3 3 5 6 3 2 2 5 3 5 7 2 3 17 5 5 6 14 24 30 31 34
13 8 26 35 6 6 4 3 4 6 7 8 7 5 0 6 3 5 6 3 13 6 8 6 2 5 3 3 2 3 4 4 3 2 10 8 10 4 14 21 34 32 33 31 28
14 5 6 13 7 11 10 7 7 6 3 7 3 5 4 7 2 7 6 1 4 4 6 6 6 9 10 6 3 12 17 16 9 7 14 19 25 28 22 19 22 28 31 30 30
14 4 16 7 11 5 13 11 12 11 13 12 5 13 17 8 6 5 4 1 5 8 5 3 5 9 13 13 16 18 19 14 17 20 17 26 23 21 21 21 25 29 32 27 25
15 8 13 6 22 16 11 12 16 13 12 7 12 10 10 8 8 7 7 5 4 4 5 1 4 8 16 13 16 22 16 17 19 22 19 24 25 22 29 29 28 28 26 23 15
17 18 17 13 9 11 16 20 15 13 7 8 12 9 9 9 11 7 2 4 5 5 10 6 3 3 6 11 11 12 14 19 16 16 13 15 17 14 15 17 26 27 22 19 14
Wind_Direction
317 319 322 327 330 334 336 336 339 339 338 338 338 342 348 350 359 93 35 14 354 345 342 340 316 299 265 150 173 161 123 194 233 199 281 338 348 2 331 183 210 213 228 257 260
311 314 317 321 324 330 334 335 337 340 336 334 338 339 343 348 360 90 53 345 343 338 342 356 354 20 149 145 168 167 191 215 218 204 264 314 350 318 277 250 243 259 255 253 234
302 310 313 318 323 327 332 333 335 337 334 331 333 336 338 344 355 190 320 317 332 341 340 343 332 333 135 144 155 160 220 188 230 212 237 303 310 215 253 254 242 250 273 242 220
298 306 310 316 319 324 329 331 333 334 333 330 329 330 333 337 339 298 304 308 331 347 355 10 356 344 61 39 22 282 268 262 280 304 293 272 270 255 217 250 271 273 266 245 229
291 301 306 312 317 322 327 330 331 332 329 327 328 326 328 318 306 297 281 309 312 329 32 35 49 11 357 327 328 221 294 296 286 291 281 279 259 264 264 274 262 267 261 241 237
288 296 305 311 316 321 324 328 329 329 323 322 322 320 319 295 297 265 306 336 5 27 59 51 42 21 95 316 317 298 281 287 285 282 252 271 323 270 321 312 304 276 252 238 241
284 294 303 310 313 317 321 326 329 328 324 319 317 314 305 291 272 237 300 124 71 24 48 32 3 27 333 301 301 293 307 313 211 332 120 256 134 79 352 13 346 301 276 260 251
276 289 295 308 312 315 321 324 330 323 323 318 316 311 277 287 284 251 201 172 79 69 17 328 311 271 195 240 326 305 16 327 276 357 64 11 265 296 353 347 337 334 304 285 278
269 280 291 303 310 314 319 324 331 325 316 326 317 317 289 349 89 171 192 221 241 261 326 317 284 222 176 122 299 22 280 277 302 30 6 32 302 296 305 308 308 321 308 296 291
263 273 284 297 309 315 320 328 338 325 341 326 312 324 270 167 276 253 248 273 287 296 307 197 121 139 92 185 264 260 271 256 271 265 315 301 284 278 290 279 291 303 309 310 313
258 266 278 290 305 313 324 341 349 325 314 283 283 276 283 289 285 292 273 256 246 248 221 360 193 232 239 225 268 232 242 266 277 276 295 279 276 281 287 265 282 295 331 340 335
255 261 271 284 295 305 322 336 336 311 302 310 293 279 282 279 287 18 78 155 159 197 144 70 249 226 229 224 228 244 268 276 283 281 212 280 278 274 267 269 276 327 7 9 344
252 259 267 276 288 296 310 317 331 334 291 305 299 284 287 216 270 22 126 129 117 134 191 191 58 98 271 242 220 247 239 258 269 320 261 300 281 249 262 237 18 62 29 15 8
249 254 261 269 283 286 316 324 346 340 332 280 274 267 252 297 281 219 167 147 119 162 163 225 279 224 238 249 179 272 229 258 283 308 293 346 293 271 257 289 318 47 28 19 22
247 250 254 255 254 270 287 301 342 348 310 260 199 170 324 233 301 120 175 143 160 161 137 219 188 214 215 217 184 244 170 244 282 270 312 276 278 13 60 298 325 11 24 21 34
245 246 247 247 242 256 258 199 139 78 248 298 191 218 231 247 279 186 170 173 124 130 323 264 308 233 220 225 190 200 253 174 103 201 259 255 229 328 346 27 327 3 16 30 30
244 244 246 244 242 242 223 188 104 201 60 226 200 147 203 240 247 205 187 185 196 253 260 327 243 282 226 270 137 133 175 280 248 203 260 321 244 262 200 217 269 345 25 32 27
245 247 250 250 247 240 206 111 224 178 197 147 171 177 199 169 244 255 230 239 91 144 158 224 268 204 90 235 281 192 202 223 280 269 283 228 243 249 161 175 154 119 61 50 29
242 245 249 246 241 230 184 218 221 161 188 167 112 228 216 225 248 232 233 227 210 190 195 181 217 300 80 118 292 154 219 328 285 192 278 257 250 204 199 145 108 94 86 25 15
236 240 242 246 236 206 203 239 223 184 133 163 206 195 189 191 192 201 201 155 184 246 258 185 270 207 330 127 79 221 142 248 311 280 269 275 291 278 195 124 104 46 332 326 324
228 210 236 232 205 185 220 218 229 216 190 189 219 224 212 175 202 197 213 152 184 162 171 159 206 200 68 103 194 283 249 231 274 243 272 287 279 116 100 81 356 311 305 306 305
209 179 189 184 158 196 230 186 228 174 196 277 313 239 213 174 192 215 207 216 169 161 168 219 175 212 229 203 154 198 264 237 220 254 275 316 268 123 158 305 304 299 298 300 300
172 145 174 173 165 194 196 237 200 175 187 184 215 218 42 193 234 218 188 174 159 151 165 179 216 289 228 146 124 187 139 122 333 246 255 256 268 184 293 297 296 297 302 297 294
160 125 165 218 207 189 183 201 207 203 246 207 213 160 157 221 199 208 179 164 93 117 153 135 218 226 249 262 279 272 276 287 278 258 267 250 273 283 280 282 285 292 294 297 298
185 169 164 192 226 175 183 176 198 201 203 209 217 222 192 194 189 207 191 186 291 187 155 126 245 238 248 257 264 261 264 253 239 246 247 268 260 271 277 284 291 295 294 293 297
170 144 168 165 202 194 183 208 205 200 173 193 222 191 197 191 179 176 170 191 190 235 245 226 262 264 267 260 259 268 262 250 243 247 252 257 265 266 274 282 283 282 285 292 292
189 174 179 164 179 186 210 216 212 174 203 211 177 167 196 195 164 176 180 185 211 215 198 191 207 237 271 265 285 281 239 234 241 238 247 258 259 279 285 285 285 290 289 286 271
Height
1546 1546 1545 1544 1543 1541 1539 1536 1534 1531 1528 1525 1521 1518 1514 1510 1507 1505 1505 1507 1506 1504 1502 1501 1501 1500 1500 1500 1501 1502 1507 1512 1505 1506 1497 1497 1495 1493 1492 1492 1491 1490 1489 1489 1489
1545 1545 1544 1543 1542 1540 1537 1535 1533 1530 1528 1524 1520 1517 1513 1509 1505 1505 1505 1505 1504 1503 1502 1500 1499 1499 1498 1499 1500 1501 1503 1502 1499 1499 1497 1496 1496 1494 1493 1491 1490 1488 1488 1487 1486
1543 1543 1542 1541 1540 1538 1536 1533 1532 1529 1526 1523 1519 1516 1512 1508 1505 1504 1504 1503 1502 1502 1501 1500 1500 1499 1498 1498 1500 1500 1497 1496 1496 1497 1496 1494 1492 1492 1492 1491 1488 1487 1485 1484 1484
1541 1541 1541 1540 1539 1537 1535 1532 1530 1528 1524 1521 1518 1514 1510 1508 1510 1502 1502 1502 1501 1500 1500 1499 1500 1500 1499 1498 1499 1500 1496 1498 1496 1495 1495 1493 1491 1488 1488 1486 1485 1483 1483 1482 1480
1539 1539 1539 1539 1537 1535 1533 1531 1529 1526 1522 1519 1515 1512 1509 1506 1502 1500 1499 1499 1499 1499 1498 1499 1499 1501 1502 1501 1498 1498 1496 1495 1493 1491 1490 1490 1488 1487 1484 1482 1480 1480 1479 1478 1478
1537 1537 1537 1536 1535 1533 1531 1528 1526 1524 1520 1516 1512 1510 1508 1505 1498 1497 1497 1498 1498 1497 1498 1498 1500 1500 1501 1501 1500 1497 1495 1491 1488 1486 1487 1487 1486 1485 1483 1480 1478 1478 1479 1479 1478
1535 1535 1535 1534 1533 1531 1529 1526 1523 1520 1516 1512 1508 1505 1503 1498 1496 1496 1496 1497 1497 1497 1497 1497 1497 1498 1499 1498 1498 1496 1492 1487 1485 1486 1485 1485 1484 1483 1481 1478 1477 1477 1478 1478 1478
1532 1532 1533 1531 1531 1528 1525 1523 1520 1516 1512 1508 1503 1500 1496 1493 1493 1493 1494 1494 1496 1496 1496 1496 1496 1496 1496 1496 1496 1495 1495 1492 1482 1483 1483 1481 1483 1478 1478 1478 1476 1476 1475 1475 1474
1528 1529 1529 1529 1528 1526 1523 1521 1518 1513 1508 1505 1500 1498 1494 1493 1493 1494 1494 1494 1494 1495 1495 1493 1494 1495 1496 1496 1497 1498 1494 1496 1486 1482 1481 1482 1482 1475 1477 1476 1474 1473 1472 1472 1472
1525 1525 1526 1526 1525 1523 1521 1518 1514 1509 1506 1503 1498 1499 1493 1492 1492 1492 1492 1492 1493 1493 1493 1492 1491 1495 1497 1496 1499 1494 1495 1494 1490 1482 1479 1478 1477 1473 1472 1472 1470 1468 1467 1467 1468
1521 1521 1523 1523 1522 1521 1519 1516 1513 1509 1505 1504 1499 1493 1491 1490 1488 1484 1484 1485 1488 1493 1493 1492 1493 1491 1491 1493 1494 1495 1495 1492 1484 1480 1483 1473 1472 1469 1465 1467 1465 1464 1465 1466 1463
1518 1518 1519 1520 1520 1519 1519 1519 1518 1517 1499 1492 1489 1487 1486 1486 1485 1482 1482 1485 1486 1489 1492 1495 1492 1489 1492 1493 1494 1494 1495 1489 1484 1479 1480 1471 1466 1462 1459 1458 1459 1463 1464 1462 1462
1514 1516 1516 1517 1517 1516 1517 1518 1516 1515 1508 1488 1487 1485 1485 1486 1483 1482 1482 1482 1485 1490 1492 1492 1490 1489 1491 1492 1495 1495 1495 1491 1487 1481 1476 1474 1456 1458 1454 1454 1457 1461 1462 1462 1459
1509 1511 1513 1515 1518 1513 1515 1516 1515 1514 1514 1492 1485 1485 1485 1485 1485 1482 1481 1482 1484 1486 1489 1491 1488 1488 1490 1491 1492 1496 1486 1487 1488 1488 1483 1480 1464 1456 1453 1454 1456 1461 1463 1463 1461
1504 1506 1508 1511 1512 1511 1515 1516 1515 1515 1522 1486 1485 1485 1484 1486 1485 1482 1481 1482 1485 1485 1486 1484 1485 1486 1487 1485 1486 1486 1484 1486 1486 1487 1490 1486 1484 1457 1459 1456 1458 1461 1463 1463 1461
1498 1500 1502 1504 1506 1509 1512 1513 1516 1521 1514 1488 1483 1483 1485 1484 1483 1481 1481 1481 1483 1485 1487 1484 1484 1483 1480 1478 1479 1478 1480 1483 1488 1486 1483 1470 1475 1453 1461 1463 1460 1462 1462 1459 1458
1491 1494 1494 1496 1497 1502 1506 1511 1517 1514 1489 1486 1484 1484 1485 1483 1482 1480 1480 1480 1481 1486 1488 1485 1482 1480 1481 1482 1480 1482 1484 1486 1481 1485 1475 1477 1477 1454 1461 1461 1462 1461 1462 1461 1460
1485 1486 1486 1487 1493 1495 1501 1509 1502 1486 1481 1481 1481 1483 1485 1484 1484 1483 1483 1481 1480 1478 1483 1482 1484 1478 1478 1480 1482 1485 1484 1488 1486 1479 1470 1476 1464 1453 1462 1462 1461 1461 1462 1462 1462
1475 1477 1475 1477 1485 1487 1492 1493 1470 1475 1474 1479 1482 1483 1483 1484 1486 1485 1484 1481 1481 1477 1478 1483 1481 1476 1475 1475 1479 1483 1486 1483 1484 1486 1482 1460 1457 1460 1461 1461 1462 1463 1462 1461 1461
1462 1463 1463 1470 1475 1478 1479 1462 1466 1465 1468 1472 1474 1472 1479 1480 1484 1484 1480 1479 1480 1481 1479 1478 1479 1474 1474 1474 1476 1477 1479 1487 1490 1491 1481 1458 1456 1452 1457 1460 1460 1460 1460 1459 1458
1443 1448 1451 1461 1468 1475 1464 1461 1460 1462 1467 1470 1466 1463 1466 1473 1476 1479 1470 1475 1474 1478 1480 1481 1479 1479 1474 1475 1478 1479 1480 1481 1486 1487 1484 1476 1453 1460 1461 1462 1460 1458 1456 1454 1451
1435 1442 1444 1450 1465 1466 1462 1459 1460 1463 1465 1467 1468 1462 1460 1465 1471 1473 1468 1467 1470 1475 1476 1479 1481 1478 1473 1475 1476 1476 1478 1480 1483 1484 1488 1493 1453 1456 1458 1459 1457 1454 1451 1448 1445
1427 1436 1442 1447 1448 1454 1456 1457 1458 1460 1461 1463 1464 1463 1464 1466 1470 1466 1464 1465 1466 1470 1474 1476 1478 1475 1469 1476 1477 1474 1475 1479 1488 1492 1491 1494 1456 1456 1457 1454 1450 1447 1445 1445 1441
1417 1432 1439 1442 1437 1438 1446 1453 1454 1455 1458 1460 1459 1460 1464 1467 1465 1465 1466 1469 1466 1469 1471 1472 1473 1472 1470 1466 1472 1478 1473 1475 1483 1495 1483 1470 1466 1448 1454 1451 1447 1444 1442 1440 1436
1404 1410 1412 1435 1434 1433 1436 1441 1447 1448 1454 1457 1460 1457 1456 1466 1468 1471 1472 1475 1472 1472 1472 1474 1477 1473 1471 1467 1466 1465 1468 1471 1473 1470 1473 1454 1456 1450 1446 1445 1442 1439 1436 1434 1431
1392 1401 1409 1415 1423 1428 1430 1428 1431 1439 1445 1447 1448 1452 1456 1456 1456 1464 1470 1474 1474 1475 1475 1475 1478 1472 1471 1466 1459 1461 1463 1462 1462 1456 1455 1452 1444 1443 1442 1441 1438 1433 1430 1427 1427
1381 1387 1394 1406 1414 1420 1413 1415 1421 1431 1437 1437 1442 1450 1454 1455 1459 1463 1465 1470 1471 1473 1473 1477 1478 1474 1468 1463 1461 1457 1446 1446 1447 1443 1445 1444 1437 1437 1439 1437 1432 1428 1425 1423 1423